1514322000.54,7046,9.5,72636.0,-8.65,-30.01,-29.51,0,*63
1514322001.8,7047,9.5,72638.0,-8.65,-30.27,-29.73,0,*66
1514322003.03,7048,9.5,72638.8,-8.65,-30.27,-29.83,0,*66
1514322004.31,7049,9.5,72638.3,-8.65,-30.17,-29.51,0,*6B
1514322005.6,7050,9.56,72642.8,-8.65,-30.17,-29.51,0,*63
1514322006.82,7051,9.5,72638.8,-8.65,-30.23,-29.67,0,*60
1514322008.05,7052,9.5,72638.5,-8.63,-30.17,-29.61,0,*64
1514322009.27,7053,9.5,72638.0,-8.63,-30.17,-29.61,0,*65
1514322010.53,7054,9.5,72636.5,-8.61,-30.17,-29.61,0,*60
1514322011.78,7055,9.56,72638.3,-8.65,-30.39,-29.83,0,*65
1514322012.98,7056,9.56,72638.8,-8.63,-30.23,-29.67,0,*61
1514322014.2,7057,9.56,72638.5,-8.63,-30.39,-29.83,0,*61
1514322015.43,7058,9.5,72636.3,-8.63,-30.51,-29.83,0,*60
1514322016.64,7059,9.5,72636.0,-8.63,-30.51,-29.79,0,*64
1514322017.86,7060,9.56,72638.5,-8.63,-30.55,-29.95,0,*68
1514322019.08,7061,9.5,72636.0,-8.63,-30.51,-29.79,0,*6F
1514322020.33,7062,9.5,72636.0,-8.65,-30.45,-29.73,0,*65
1514322021.54,7063,9.5,72636.3,-8.63,-30.39,-29.79,0,*63
1514322022.76,7064,9.5,72636.8,-8.63,-30.51,-29.79,0,*6A
1514322023.99,7065,9.5,72638.3,-8.63,-30.23,-29.51,0,*64
1514322025.21,7066,9.5,72638.0,-8.63,-30.39,-29.83,0,*63
1514322026.48,7067,9.56,72638.3,-8.65,-30.61,-30.01,0,*6B
1514322027.76,7068,9.5,72636.8,-8.65,-30.73,-30.01,0,*67
1514322029.02,7069,9.56,72640.5,-8.65,-30.61,-29.83,0,*67
1514322030.27,7070,9.56,72636.8,-8.65,-30.23,-29.51,0,*66
1514322031.5,7071,9.56,72636.3,-8.63,-30.17,-29.45,0,*63
1514322032.75,7072,9.5,72638.0,-8.61,-30.11,-29.35,0,*63
1514322034.01,7073,9.56,72638.3,-8.61,-30.51,-29.67,0,*61
1514322035.25,7074,9.5,72636.0,-8.61,-30.55,-29.79,0,*6D
1514322036.48,7075,9.5,72636.0,-8.61,-30.33,-29.67,0,*63
1514322037.7,7076,9.5,72636.3,-8.63,-30.39,-29.67,0,*68
1514322038.92,7077,9.56,72638.5,-8.63,-30.39,-29.67,0,*69
1514322040.14,7078,9.56,72636.5,-8.63,-30.39,-29.61,0,*60
1514322041.36,7079,9.5,72638.3,-8.63,-30.55,-29.79,0,*62
1514322042.58,7080,9.56,72636.3,-8.63,-30.51,-29.61,0,*69
1514322043.83,7081,9.56,72636.3,-8.61,-30.55,-29.83,0,*62
1514322045.06,7082,9.5,72638.5,-8.61,-30.67,-29.83,0,*60
1514322046.29,7083,9.56,72638.3,-8.63,-30.55,-29.83,0,*62
1514322047.49,7084,9.5,72638.3,-8.63,-30.67,-29.83,0,*64
1514322048.72,7085,9.5,72638.3,-8.63,-30.55,-29.83,0,*64
1514322049.93,7086,9.5,72636.3,-8.63,-30.51,-29.79,0,*66
1514322051.19,7087,9.56,72636.5,-8.65,-30.61,-29.83,0,*67
1514322052.41,7088,9.5,72638.3,-8.63,-30.39,-29.67,0,*69
1514322053.63,7089,9.5,72634.5,-8.63,-30.51,-29.83,0,*6C
1514322054.83,7090,9.5,72636.3,-8.59,-30.33,-29.57,0,*60
1514322056.08,7091,9.5,72636.8,-8.61,-30.39,-29.61,0,*65
1514322057.33,7092,9.56,72636.3,-8.61,-30.51,-29.67,0,*6E
1514322058.57,7093,9.5,72634.5,-8.61,-30.67,-29.83,0,*60
1514322059.8,7094,9.5,72636.3,-8.61,-30.67,-29.83,0,*67
1514322061.0,7095,9.5,72638.3,-8.59,-30.67,-29.79,0,*68
1514322062.19,7096,9.56,72638.5,-8.59,-30.67,-29.79,0,*6B
1514322063.47,7097,9.5,72638.3,-8.61,-30.73,-30.01,0,*63
1514322064.72,7098,9.5,72636.0,-8.61,-30.55,-29.79,0,*6F
1514322065.96,7099,9.56,72636.8,-8.61,-30.55,-29.79,0,*6E
1514322067.2,7100,9.5,72638.3,-8.59,-30.51,-29.73,0,*6A
1514322068.46,7101,9.56,72638.8,-8.61,-30.51,-29.61,0,*63
1514322069.71,7102,9.5,72638.3,-8.61,-30.33,-29.51,0,*67
1514322070.93,7103,9.5,72638.3,-8.59,-30.51,-29.45,0,*6C
1514322072.15,7104,9.5,72636.8,-8.59,-30.27,-29.39,0,*61
1514322073.4,7105,9.56,72638.8,-8.59,-30.17,-29.39,0,*63
1514322074.6,7106,9.5,72638.5,-8.59,-30.33,-29.57,0,*6E
1514322075.81,7107,9.5,72636.3,-8.59,-30.61,-29.79,0,*64
1514322077.0,7108,9.56,72638.5,-8.59,-30.45,-29.57,0,*61
1514322078.22,7109,9.5,72636.0,-8.59,-30.51,-29.61,0,*60
1514322079.42,7110,9.5,72636.3,-8.55,-30.67,-29.79,0,*68
1514322080.69,7111,9.5,72636.8,-8.51,-30.61,-29.73,0,*61
1514322081.92,7112,9.56,72638.0,-8.55,-30.67,-29.89,0,*65
1514322083.12,7113,9.5,72638.0,-8.55,-30.45,-29.57,0,*67
1514322084.35,7114,9.5,72638.0,-8.55,-30.51,-29.57,0,*65
1514322085.56,7115,9.56,72638.8,-8.55,-30.51,-29.61,0,*61
1514322086.76,7116,9.56,72638.8,-8.55,-30.33,-29.57,0,*63
1514322088.02,7117,9.5,72636.3,-8.51,-30.27,-29.51,0,*65
1514322089.24,7118,9.56,72638.5,-8.55,-30.61,-29.79,0,*66
1514322090.53,7119,9.56,72636.3,-8.51,-30.73,-29.89,0,*6F
1514322091.77,7120,9.5,72636.0,-8.51,-30.55,-29.57,0,*62
1514322093.05,7121,9.5,72632.8,-8.51,-30.39,-29.51,0,*6F
1514322094.24,7122,9.56,72638.3,-8.55,-30.45,-29.57,0,*65
1514322095.47,7123,9.5,72636.5,-8.51,-30.45,-29.57,0,*60
1514322096.74,7124,9.5,72636.0,-8.51,-30.39,-29.51,0,*6A
1514322097.94,7125,9.56,72638.8,-8.55,-30.45,-29.57,0,*62
1514322099.16,7126,9.5,72636.8,-8.49,-30.23,-29.29,0,*65
1514322100.41,7127,9.5,72636.3,-8.49,-30.17,-29.29,0,*63
1514322101.63,7128,9.56,72638.5,-8.49,-30.23,-29.35,0,*66
1514322102.88,7129,9.56,72636.5,-8.47,-30.39,-29.45,0,*65
1514322104.13,7130,9.5,72638.8,-8.49,-30.39,-29.51,0,*66
1514322105.4,7131,9.5,72636.0,-8.47,-30.39,-29.51,0,*69
1514322106.66,7132,9.56,72638.0,-8.47,-30.33,-29.51,0,*60
1514322107.93,7133,9.5,72636.0,-8.47,-30.39,-29.51,0,*6B
1514322109.15,7134,9.56,72638.5,-8.49,-30.51,-29.61,0,*6F
1514322110.41,7135,9.5,72638.8,-8.47,-30.51,-29.67,0,*66
1514322111.66,7136,9.56,72636.5,-8.47,-30.55,-29.67,0,*61
1514322112.91,7137,9.5,72636.5,-8.47,-30.89,-29.95,0,*6C
1514322114.11,7138,9.5,72638.3,-8.49,-30.67,-29.79,0,*6F
1514322115.34,7139,9.56,72636.8,-8.47,-30.67,-29.79,0,*60
1514322116.59,7140,9.56,72636.8,-8.47,-30.51,-29.67,0,*64
1514322117.85,7141,9.5,72636.3,-8.47,-30.89,-29.95,0,*6D
1514322119.1,7142,9.5,72638.0,-8.47,-31.05,-30.17,0,*69
1514322120.36,7143,9.5,72632.3,-8.45,-30.77,-29.73,0,*64
1514322121.57,7144,9.56,72636.5,-8.45,-30.67,-29.79,0,*68
1514322122.8,7145,9.56,72638.3,-8.47,-30.83,-29.95,0,*63
1514322124.03,7146,9.5,72638.0,-8.47,-30.67,-29.83,0,*6D
1514322125.26,7147,9.5,72634.5,-8.47,-30.67,-29.79,0,*69
1514322126.51,7148,9.5,72636.0,-8.47,-30.51,-29.61,0,*6A
1514322127.76,7149,9.5,72638.5,-8.47,-30.51,-29.61,0,*6B
1514322129.01,7150,9.56,72642.3,-8.47,-30.51,-29.61,0,*63
1514322130.21,7151,9.5,72636.3,-8.45,-30.45,-29.57,0,*60
1514322131.44,7152,9.5,72636.5,-8.45,-30.45,-29.73,0,*65
1514322132.68,7153,9.5,72636.5,-8.43,-30.45,-29.73,0,*62
1514322133.88,7154,9.56,72636.5,-8.45,-30.45,-29.57,0,*65
1514322135.1,7155,9.5,72636.3,-8.43,-30.45,-29.45,0,*61
1514322136.35,7156,9.5,72638.8,-8.43,-30.51,-29.61,0,*61
1514322137.6,7157,9.5,72634.8,-8.43,-30.51,-29.57,0,*65
1514322138.8,7158,9.56,72638.3,-8.45,-30.45,-29.57,0,*69
1514322140.05,7159,9.56,72640.0,-8.43,-30.61,-29.61,0,*6D
1514322141.29,7160,9.5,72638.3,-8.43,-30.51,-29.61,0,*64
1514322142.52,7161,9.56,72638.5,-8.43,-30.45,-29.57,0,*65
1514322143.74,7162,9.5,72634.0,-8.43,-30.45,-29.57,0,*66
1514322144.98,7163,9.5,72636.3,-8.41,-30.61,-29.73,0,*65
1514322146.23,7164,9.56,72642.3,-8.43,-30.67,-29.73,0,*66
1514322147.48,7165,9.56,72638.5,-8.43,-30.67,-29.73,0,*67
1514322148.71,7166,9.5,72636.8,-8.41,-30.61,-29.67,0,*65
1514322149.93,7167,9.5,72636.3,-8.41,-30.39,-29.67,0,*69
1514322151.13,7168,9.5,72632.5,-8.41,-30.45,-29.57,0,*6E
1514322152.35,7169,9.5,72638.5,-8.41,-30.55,-29.67,0,*6D
1514322153.58,7170,9.5,72634.8,-8.41,-30.61,-29.67,0,*62
1514322154.8,7171,9.5,72638.0,-8.41,-30.55,-29.67,0,*64
1514322156.05,7172,9.5,72638.0,-8.39,-30.55,-29.67,0,*68
1514322157.32,7173,9.5,72638.8,-8.39,-30.73,-29.73,0,*68
1514322158.57,7174,9.56,72636.8,-8.39,-30.55,-29.67,0,*6E
1514322159.81,7175,9.56,72638.3,-8.39,-30.55,-29.67,0,*6F
1514322161.04,7176,9.5,72636.0,-8.41,-30.61,-29.67,0,*64
1514322162.26,7177,9.56,72640.0,-8.37,-30.55,-29.61,0,*65
1514322163.52,7178,9.5,72638.0,-8.39,-30.55,-29.73,0,*67
1514322164.81,7179,9.56,72638.3,-8.39,-30.89,-29.89,0,*62
1514322166.05,7180,9.56,72642.0,-8.39,-31.01,-30.05,0,*69
1514322167.3,7181,9.56,72642.8,-8.39,-30.77,-29.83,0,*6E
1514322168.58,7182,9.56,72638.3,-8.39,-30.73,-29.73,0,*66
1514322169.82,7183,9.5,72638.8,-8.39,-30.55,-29.67,0,*66
1514322171.08,7184,9.5,72640.5,-8.37,-30.51,-29.51,0,*6E
1514322172.33,7185,9.56,72638.8,-8.37,-30.51,-29.51,0,*6F
1514322173.58,7186,9.56,72640.3,-8.37,-30.39,-29.51,0,*62
1514322174.83,7187,9.5,72636.5,-8.37,-30.51,-29.51,0,*6D
1514322176.11,7188,9.5,72638.0,-8.35,-30.51,-29.51,0,*60
1514322177.36,7189,9.5,72638.3,-8.37,-30.55,-29.51,0,*67
1514322178.58,7190,9.56,72642.0,-8.37,-30.55,-29.67,0,*6A
1514322179.81,7191,9.5,72638.5,-8.35,-30.67,-29.67,0,*68
1514322181.04,7192,9.5,72638.3,-8.35,-30.67,-29.79,0,*64
1514322182.27,7193,9.56,72640.3,-8.35,-30.67,-29.67,0,*6A
1514322183.49,7194,9.56,72640.0,-8.37,-31.05,-30.05,0,*66
1514322184.75,7195,9.56,72642.0,-8.35,-30.95,-29.95,0,*6C
1514322186.02,7196,9.5,72640.8,-8.35,-30.89,-30.05,0,*63
1514322187.26,7197,9.56,72640.3,-8.35,-30.83,-29.83,0,*6E
1514322188.51,7198,9.5,72636.3,-8.35,-30.73,-29.83,0,*6E
1514322189.77,7199,9.56,72642.0,-8.35,-30.73,-29.83,0,*6F
1514322190.96,7200,9.5,72638.8,-8.33,-31.01,-30.11,0,*6D
1514322192.24,7201,9.5,72638.5,-8.35,-30.95,-30.01,0,*67
1514322193.45,7202,9.56,72642.0,-8.37,-30.83,-29.83,0,*63
1514322194.68,7203,9.56,72642.0,-8.33,-30.89,-29.95,0,*6B
1514322195.94,7204,9.5,72638.3,-8.35,-31.23,-30.33,0,*6F
1514322197.2,7205,9.5,72638.5,-8.35,-31.11,-30.23,0,*6E
1514322198.45,7206,9.56,72640.3,-8.35,-31.05,-30.05,0,*6C
1514322199.71,7207,9.5,72636.0,-8.35,-31.11,-30.33,0,*6D
1514322200.97,7208,9.56,72640.5,-8.35,-31.11,-30.23,0,*63
1514322202.17,7209,9.5,72638.5,-8.37,-31.05,-30.33,0,*64
1514322203.46,7210,9.5,72638.5,-8.35,-31.23,-30.17,0,*6C
1514322204.74,7211,9.5,72640.0,-8.35,-30.95,-30.05,0,*62
1514322205.99,7212,9.5,72638.3,-8.35,-31.05,-30.01,0,*6D
1514322207.22,7213,9.5,72636.5,-8.37,-31.23,-30.23,0,*6A
1514322208.47,7214,9.56,72640.3,-8.37,-30.95,-30.05,0,*65
1514322209.75,7215,9.56,72642.8,-8.35,-30.89,-30.01,0,*6F
1514322211.01,7216,9.5,72638.8,-8.37,-30.95,-30.05,0,*67
1514322212.21,7217,9.56,72640.8,-8.37,-31.29,-30.33,0,*65
1514322213.44,7218,9.56,72640.3,-8.37,-31.29,-30.51,0,*6E
1514322214.69,7219,9.56,72640.8,-8.37,-31.39,-30.39,0,*60
1514322215.95,7220,9.56,72642.5,-8.37,-31.11,-30.39,0,*60
1514322217.21,7221,9.5,72638.8,-8.37,-31.11,-30.17,0,*6D
1514322218.44,7222,9.56,72640.3,-8.37,-31.11,-30.23,0,*69
1514322219.7,7223,9.56,72640.3,-8.39,-31.11,-30.23,0,*66
1514322220.95,7224,9.56,72642.5,-8.39,-31.11,-30.23,0,*61
1514322222.21,7225,9.56,72640.3,-8.39,-31.11,-30.11,0,*61
1514322223.43,7226,9.56,72640.5,-8.39,-31.01,-30.27,0,*66
1514322224.65,7227,9.56,72640.5,-8.39,-31.01,-30.11,0,*62
1514322225.87,7228,9.56,72642.3,-8.39,-31.01,-30.11,0,*6D
1514322227.12,7229,9.5,72638.3,-8.39,-31.11,-30.11,0,*6D
1514322228.32,7230,9.56,72642.8,-8.37,-31.05,-30.23,0,*6F
1514322229.55,7231,9.5,72636.8,-8.39,-31.29,-30.45,0,*6E
1514322230.8,7232,9.5,72640.0,-8.37,-31.39,-30.51,0,*67
1514322232.03,7233,9.5,72638.3,-8.37,-31.29,-30.39,0,*69
1514322233.29,7234,9.5,72638.5,-8.39,-31.45,-30.61,0,*67
1514322234.55,7235,9.56,72640.5,-8.39,-31.33,-30.61,0,*67
1514322235.77,7236,9.5,72640.8,-8.39,-31.17,-30.27,0,*60
1514322237.03,7237,9.5,72640.3,-8.39,-31.11,-30.27,0,*67
1514322238.28,7238,9.56,72642.0,-8.39,-31.11,-30.23,0,*6C
1514322239.51,7239,9.5,72640.5,-8.41,-31.01,-30.05,0,*67
1514322240.72,7240,9.56,72642.0,-8.39,-31.01,-30.11,0,*63
1514322241.95,7241,9.5,72640.0,-8.39,-31.29,-30.45,0,*69
1514322243.18,7242,9.5,72638.5,-8.41,-31.11,-30.23,0,*6E
1514322244.43,7243,9.5,72636.0,-8.39,-31.17,-30.39,0,*6D
1514322245.66,7244,9.5,72636.5,-8.41,-31.29,-30.39,0,*68
1514322246.91,7245,9.56,72644.0,-8.39,-31.33,-30.55,0,*67
1514322248.14,7246,9.5,72636.3,-8.41,-31.33,-30.55,0,*6B
1514322249.37,7247,9.5,72642.5,-8.41,-31.45,-30.55,0,*6B
1514322250.59,7248,9.56,72640.5,-8.41,-31.33,-30.55,0,*65
1514322251.85,7249,9.5,72640.8,-8.39,-31.29,-30.55,0,*60
1514322253.07,7250,9.5,72636.3,-8.39,-31.01,-30.27,0,*67
1514322254.29,7251,9.56,72640.5,-8.39,-31.17,-30.27,0,*61
1514322255.53,7252,9.56,72640.0,-8.41,-31.11,-30.23,0,*6F
1514322256.72,7253,9.56,72640.5,-8.41,-31.01,-30.23,0,*6F
1514322257.92,7254,9.56,72644.0,-8.41,-31.01,-30.23,0,*68
1514322259.15,7255,9.5,72638.8,-8.41,-31.11,-30.27,0,*6C
1514322260.37,7256,9.5,72640.0,-8.39,-31.01,-30.11,0,*64
1514322261.65,7257,9.5,72636.8,-8.39,-31.11,-30.39,0,*6E
1514322262.88,7258,9.5,72638.0,-8.41,-31.33,-30.55,0,*64
1514322264.13,7259,9.56,72642.0,-8.39,-31.33,-30.55,0,*6A
1514322265.36,7260,9.56,72640.5,-8.41,-31.33,-30.61,0,*68
1514322266.6,7261,9.56,72642.8,-8.41,-31.45,-30.73,0,*6B
1514322267.86,7262,9.56,72640.3,-8.43,-31.33,-30.61,0,*68
1514322269.11,7263,9.5,72636.3,-8.43,-31.33,-30.51,0,*6A
1514322270.37,7264,9.56,72640.3,-8.43,-31.23,-30.45,0,*69
1514322271.6,7265,9.56,72640.5,-8.43,-31.17,-30.33,0,*6E
1514322272.86,7266,9.5,72640.0,-8.43,-31.23,-30.33,0,*6A
1514322274.08,7267,9.56,72640.3,-8.43,-31.17,-30.45,0,*6D
1514322275.31,7268,9.56,72642.0,-8.43,-31.05,-30.33,0,*60
1514322276.56,7269,9.56,72640.3,-8.43,-31.01,-30.17,0,*63
1514322277.84,7270,9.56,72640.8,-8.43,-30.77,-30.01,0,*6C
1514322279.09,7271,9.56,72642.0,-8.43,-31.01,-30.17,0,*6A
1514322280.32,7272,9.56,72640.8,-8.41,-31.29,-30.55,0,*67
1514322281.55,7273,9.5,72640.8,-8.41,-31.29,-30.55,0,*66
1514322282.77,7274,9.5,72640.0,-8.41,-31.29,-30.55,0,*61
1514322284.03,7275,9.56,72642.0,-8.41,-31.11,-30.39,0,*61
1514322285.29,7276,9.56,72640.0,-8.41,-31.11,-30.39,0,*62
1514322286.51,7277,9.5,72640.3,-8.43,-31.01,-30.33,0,*6A
1514322287.74,7278,9.56,72640.8,-8.43,-31.01,-30.33,0,*65
1514322288.97,7279,9.56,72640.8,-8.41,-30.95,-30.23,0,*6B
1514322290.19,7280,9.5,72636.5,-8.43,-31.05,-30.27,0,*63
1514322291.44,7281,9.56,72642.3,-8.43,-31.17,-30.51,0,*60
1514322292.72,7282,9.5,72640.0,-8.43,-31.23,-30.51,0,*64
1514322293.95,7283,9.5,72638.8,-8.43,-31.05,-30.33,0,*65
1514322295.18,7284,9.56,72642.3,-8.41,-31.11,-30.27,0,*60
1514322296.43,7285,9.5,72638.0,-8.43,-31.17,-30.51,0,*64
1514322297.69,7286,9.56,72640.0,-8.41,-31.11,-30.39,0,*6D
1514322298.92,7287,9.5,72638.5,-8.41,-31.17,-30.61,0,*67
1514322300.18,7288,9.56,72642.3,-8.43,-31.33,-30.61,0,*6C
1514322301.41,7289,9.56,72640.5,-8.43,-31.33,-30.67,0,*6B
1514322302.65,7290,9.56,72642.3,-8.45,-31.33,-30.77,0,*64
1514322303.94,7291,9.5,72640.0,-8.43,-31.51,-30.77,0,*67
1514322305.2,7292,9.5,72638.5,-8.43,-31.39,-30.67,0,*6B
1514322306.42,7293,9.5,72638.3,-8.43,-31.05,-30.33,0,*64
1514322307.65,7294,9.5,72636.0,-8.43,-31.17,-30.45,0,*61
1514322308.88,7295,9.56,72638.5,-8.45,-31.05,-30.51,0,*60
1514322310.14,7296,9.5,72638.8,-8.43,-31.33,-30.77,0,*64
1514322311.39,7297,9.56,72638.3,-8.45,-31.33,-30.77,0,*63
1514322312.63,7298,9.56,72642.3,-8.45,-31.33,-30.77,0,*6C
1514322313.87,7299,9.5,72638.0,-8.45,-31.33,-30.77,0,*6D
1514322315.12,7300,9.5,72638.5,-8.45,-31.33,-30.77,0,*6C
1514322316.36,7301,9.56,72642.3,-8.45,-31.33,-30.77,0,*6D
1514322317.6,7302,9.56,72640.5,-8.45,-31.33,-30.61,0,*69
1514322318.84,7303,9.56,72638.8,-8.45,-31.17,-30.61,0,*6E
1514322320.05,7304,9.56,72640.3,-8.45,-31.17,-30.45,0,*6F
1514322321.28,7305,9.5,72638.3,-8.45,-31.05,-30.51,0,*68
1514322322.5,7306,9.56,72636.5,-8.45,-31.33,-30.67,0,*6B
1514322323.74,7307,9.5,72638.0,-8.45,-31.33,-30.61,0,*6C
1514322324.97,7308,9.56,72636.8,-8.45,-31.05,-30.51,0,*65
1514322326.21,7309,9.56,72636.3,-8.45,-31.17,-30.51,0,*67
1514322327.48,7310,9.5,72636.5,-8.45,-31.23,-30.61,0,*6B
1514322328.69,7311,9.56,72636.5,-8.45,-31.17,-30.67,0,*6B
1514322329.91,7312,9.5,72638.0,-8.45,-31.17,-30.67,0,*68
1514322331.13,7313,9.56,72640.0,-8.45,-31.17,-30.67,0,*69
1514322332.37,7314,9.5,72636.8,-8.43,-31.05,-30.51,0,*6E
1514322333.61,7315,9.56,72638.8,-8.45,-30.95,-30.27,0,*60
1514322334.83,7316,9.5,72638.8,-8.45,-30.83,-30.33,0,*61
1514322336.08,7317,9.5,72636.0,-8.43,-31.05,-30.61,0,*6E
1514322337.32,7318,9.56,72642.8,-8.45,-30.95,-30.33,0,*68
1514322338.53,7319,9.56,72640.8,-8.45,-31.01,-30.45,0,*64
1514322339.77,7320,9.56,72640.0,-8.45,-31.17,-30.77,0,*68
1514322340.99,7321,9.56,72636.8,-8.45,-31.17,-30.67,0,*68
1514322342.23,7322,9.5,72638.3,-8.45,-30.95,-30.33,0,*61
1514322343.46,7323,9.5,72636.0,-8.45,-31.01,-30.51,0,*68
1514322344.7,7324,9.56,72636.5,-8.45,-31.33,-30.77,0,*6A
1514322345.94,7325,9.56,72638.3,-8.45,-31.05,-30.61,0,*69
1514322347.16,7326,9.5,72638.8,-8.45,-30.83,-30.33,0,*62
1514322348.39,7327,9.56,72638.3,-8.45,-30.95,-30.45,0,*65
1514322349.6,7328,9.56,72638.3,-8.45,-30.83,-30.45,0,*6D
1514322350.87,7329,9.56,72640.0,-8.43,-31.23,-30.67,0,*61
1514322352.14,7330,9.5,72636.0,-8.45,-31.23,-30.77,0,*6E
1514322353.4,7331,9.5,72634.5,-8.43,-31.05,-30.61,0,*6A
1514322354.61,7332,9.5,72638.0,-8.45,-31.17,-30.67,0,*6A
1514322355.85,7333,9.56,72638.0,-8.45,-31.05,-30.61,0,*6E
1514322357.07,7334,9.56,72638.3,-8.45,-31.17,-30.67,0,*6C
1514322358.31,7335,9.56,72636.0,-8.45,-31.05,-30.61,0,*68
1514322359.54,7336,9.56,72638.0,-8.45,-31.01,-30.61,0,*6F
1514322360.79,7337,9.56,72636.5,-8.45,-31.17,-30.77,0,*6E
1514322362.06,7338,9.5,72636.3,-8.45,-31.23,-30.77,0,*66
1514322363.3,7339,9.56,72638.0,-8.45,-31.33,-30.77,0,*66
1514322364.58,7340,9.5,72636.3,-8.45,-31.23,-30.77,0,*69
1514322365.83,7341,9.5,72636.8,-8.47,-31.01,-30.55,0,*6A
1514322367.08,7342,9.5,72634.8,-8.47,-31.05,-30.55,0,*6D
1514322368.32,7343,9.56,72636.5,-8.49,-31.23,-30.83,0,*6D
1514322369.56,7344,9.56,72638.3,-8.49,-31.23,-30.83,0,*6A
1514322370.8,7345,9.56,72638.3,-8.47,-31.29,-30.83,0,*6F
1514322372.06,7346,9.5,72636.0,-8.47,-31.29,-30.89,0,*66
1514322373.34,7347,9.56,72636.5,-8.47,-30.89,-30.55,0,*6D
1514322374.62,7348,9.56,72638.8,-8.47,-30.89,-30.51,0,*66
1514322375.89,7349,9.56,72636.8,-8.47,-31.23,-30.83,0,*69
1514322377.18,7350,9.5,72636.0,-8.47,-31.23,-30.89,0,*6B
1514322378.44,7351,9.56,72638.5,-8.47,-31.23,-31.01,0,*6B
1514322379.71,7352,9.56,72640.3,-8.47,-31.23,-30.83,0,*63
1514322380.98,7353,9.56,72638.5,-8.47,-31.23,-30.83,0,*62
1514322382.24,7354,9.56,72636.3,-8.47,-31.01,-30.73,0,*6A
1514322383.5,7355,9.56,72636.5,-8.47,-30.83,-30.51,0,*60
1514322384.73,7356,9.5,72636.0,-8.49,-30.83,-30.51,0,*6D
1514322385.98,7357,9.56,72636.0,-8.47,-31.01,-30.73,0,*69
1514322387.26,7358,9.56,72636.8,-8.47,-30.89,-30.55,0,*63
1514322388.5,7359,9.56,72636.0,-8.49,-30.89,-30.67,0,*6D
1514322389.71,7360,9.56,72640.5,-8.49,-31.01,-30.67,0,*66
1514322390.98,7361,9.56,72638.0,-8.47,-30.73,-30.39,0,*66
1514322392.25,7362,9.5,72636.5,-8.47,-30.89,-30.67,0,*6B
1514322393.53,7363,9.56,72638.0,-8.47,-30.89,-30.55,0,*6B
1514322394.79,7364,9.56,72636.5,-8.47,-30.89,-30.67,0,*6D
1514322396.08,7365,9.56,72638.3,-8.47,-30.89,-30.73,0,*69
1514322397.36,7366,9.56,72636.0,-8.47,-30.73,-30.39,0,*61
1514322398.63,7367,9.56,72638.3,-8.47,-30.73,-30.39,0,*60
1514322399.92,7368,9.56,72638.5,-8.47,-30.89,-30.73,0,*64
1514322401.16,7369,9.56,72636.3,-8.47,-31.05,-30.83,0,*6F
1514322402.42,7370,9.5,72638.3,-8.45,-30.77,-30.61,0,*6D
1514322403.67,7371,9.56,72638.3,-8.45,-30.83,-30.61,0,*67
1514322404.92,7372,9.56,72636.0,-8.45,-30.61,-30.51,0,*6B
1514322406.16,7373,9.56,72636.8,-8.45,-30.67,-30.51,0,*6C
1514322407.4,7374,9.5,72632.8,-8.45,-30.67,-30.61,0,*68
1514322408.64,7375,9.56,72636.0,-8.45,-30.67,-30.51,0,*6A
1514322409.87,7376,9.56,72636.0,-8.45,-30.67,-30.51,0,*69
1514322411.15,7377,9.5,72634.3,-8.45,-30.95,-30.77,0,*61
1514322412.38,7378,9.5,72638.3,-8.45,-31.05,-30.95,0,*6A
1514322413.6,7379,9.5,72634.5,-8.45,-31.05,-30.95,0,*6B
1514322414.82,7380,9.56,72638.8,-8.45,-30.83,-30.67,0,*6F
1514322416.07,7381,9.56,72636.8,-8.45,-30.83,-30.77,0,*6F
1514322417.33,7382,9.56,72636.3,-8.43,-30.83,-30.77,0,*6A
1514322418.55,7383,9.56,72636.5,-8.45,-30.67,-30.67,0,*66
1514322419.79,7384,9.56,72636.3,-8.45,-30.51,-30.45,0,*64
1514322421.05,7385,9.56,72638.0,-8.43,-30.77,-30.67,0,*67
1514322422.3,7386,9.56,72636.8,-8.45,-30.51,-30.51,0,*63
1514322423.55,7387,9.56,72636.5,-8.43,-30.67,-30.51,0,*61
1514322424.82,7388,9.56,72636.8,-8.43,-30.67,-30.61,0,*6D
1514322426.1,7389,9.56,72634.8,-8.43,-30.77,-30.77,0,*6A
1514322427.36,7390,9.56,72636.0,-8.43,-30.67,-30.77,0,*63
1514322428.6,7391,9.56,72638.5,-8.45,-31.01,-30.77,0,*65
1514322429.85,7392,9.5,72632.0,-8.43,-31.01,-30.95,0,*6C
1514322431.11,7393,9.56,72632.8,-8.43,-30.77,-30.67,0,*60
1514322432.33,7394,9.56,72634.5,-8.45,-30.67,-30.67,0,*60
1514322433.59,7395,9.56,72638.5,-8.43,-30.83,-30.77,0,*6C
1514322434.85,7396,9.56,72636.5,-8.43,-30.77,-30.67,0,*65
1514322436.1,7397,9.56,72636.8,-8.45,-30.67,-30.61,0,*65
1514322437.33,7398,9.56,72636.3,-8.43,-30.67,-30.67,0,*6A
1514322438.61,7399,9.56,72636.0,-8.43,-30.51,-30.61,0,*68
1514322439.88,7400,9.56,72636.5,-8.45,-30.61,-30.61,0,*6A
1514322441.14,7401,9.56,72634.8,-8.43,-30.67,-30.77,0,*6C
1514322442.42,7402,9.56,72636.8,-8.39,-30.77,-30.73,0,*67
1514322443.71,7403,9.56,72638.3,-8.43,-30.77,-30.77,0,*6F
1514322444.97,7404,9.56,72638.0,-8.43,-30.67,-30.77,0,*69
1514322446.25,7405,9.56,72638.3,-8.43,-30.61,-30.77,0,*6E
1514322447.49,7406,9.56,72634.3,-8.43,-30.67,-30.67,0,*6A
1514322448.75,7407,9.56,72636.0,-8.43,-30.67,-30.77,0,*6A
1514322450.02,7408,9.56,72638.8,-8.41,-30.73,-30.77,0,*62
1514322451.28,7409,9.5,72632.5,-8.41,-30.77,-30.89,0,*66
1514322452.53,7410,9.56,72632.5,-8.41,-30.61,-30.61,0,*6F
1514322453.81,7411,9.56,72636.3,-8.39,-30.61,-30.73,0,*62
1514322455.07,7412,9.56,72638.8,-8.41,-30.61,-30.73,0,*6E
1514322456.35,7413,9.56,72632.8,-8.39,-30.55,-30.73,0,*67
1514322457.62,7414,9.56,72634.5,-8.39,-30.55,-30.61,0,*63
1514322458.91,7415,9.56,72636.3,-8.39,-30.73,-30.89,0,*60
1514322460.19,7416,9.5,72634.0,-8.39,-30.73,-30.89,0,*63
1514322461.44,7417,9.56,72638.0,-8.41,-30.77,-30.95,0,*64
1514322462.67,7418,9.5,72634.8,-8.41,-30.89,-31.01,0,*66
1514322463.96,7419,9.56,72636.8,-8.39,-30.77,-30.89,0,*68
1514322465.21,7420,9.56,72634.8,-8.41,-30.55,-30.77,0,*6C
1514322466.47,7421,9.56,72634.8,-8.41,-30.55,-30.77,0,*6D
1514322467.75,7422,9.56,72636.8,-8.39,-30.61,-30.77,0,*66
1514322469.0,7423,9.5,72634.0,-8.39,-30.89,-31.01,0,*61
1514322470.28,7424,9.56,72636.3,-8.39,-30.73,-30.95,0,*6F
1514322471.56,7425,9.56,72636.0,-8.39,-30.61,-30.89,0,*60
1514322472.82,7426,9.56,72638.3,-8.41,-30.77,-30.89,0,*6B
1514322474.1,7427,9.56,72638.5,-8.39,-30.95,-31.11,0,*69
1514322475.35,7428,9.56,72636.8,-8.37,-30.89,-31.11,0,*65
1514322476.58,7429,9.56,72638.3,-8.41,-30.89,-31.01,0,*64
1514322477.84,7430,9.56,72636.8,-8.41,-30.61,-30.89,0,*6B
1514322479.09,7431,9.56,72636.0,-8.39,-30.73,-31.01,0,*67
1514322480.36,7432,9.56,72636.3,-8.39,-30.73,-30.95,0,*68
1514322481.61,7433,9.56,72636.5,-8.39,-30.77,-31.01,0,*61
1514322482.87,7434,9.56,72638.3,-8.39,-30.95,-31.17,0,*6D
1514322484.1,7435,9.56,72636.0,-8.41,-30.89,-31.17,0,*6E
1514322485.33,7436,9.56,72636.3,-8.41,-30.89,-31.17,0,*6D
1514322486.58,7437,9.5,72632.3,-8.39,-30.95,-31.29,0,*63
1514322487.83,7438,9.56,72636.5,-8.41,-30.61,-30.95,0,*6E
1514322489.11,7439,9.56,72634.3,-8.39,-30.73,-30.95,0,*63
1514322490.36,7440,9.56,72638.0,-8.39,-30.73,-31.01,0,*61
1514322491.61,7441,9.56,72638.3,-8.41,-30.55,-30.77,0,*6B
1514322492.87,7442,9.56,72636.5,-8.39,-30.73,-31.01,0,*63
1514322494.14,7443,9.5,72634.5,-8.39,-30.77,-31.11,0,*67
1514322495.4,7444,9.56,72638.8,-8.37,-30.73,-31.11,0,*6A
1514322496.68,7445,9.5,72634.3,-8.39,-30.73,-31.11,0,*65
1514322497.91,7446,9.56,72636.3,-8.41,-30.95,-31.17,0,*67
1514322499.14,7447,9.5,72636.0,-8.41,-30.77,-31.17,0,*6A
1514322500.4,7448,9.56,72636.8,-8.39,-30.77,-31.17,0,*6A
1514322501.63,7449,9.5,72636.0,-8.41,-30.89,-31.29,0,*68
1514322502.86,7450,9.56,72636.5,-8.37,-30.89,-31.29,0,*61
1514322504.11,7451,9.56,72636.0,-8.39,-30.89,-31.29,0,*6E
1514322505.34,7452,9.56,72636.8,-8.41,-30.89,-31.33,0,*69
1514322506.62,7453,9.56,72638.3,-8.39,-31.11,-31.51,0,*63
1514322507.9,7454,9.56,72638.0,-8.39,-31.11,-31.61,0,*67
1514322509.15,7455,9.5,72634.5,-8.39,-31.01,-31.51,0,*64
1514322510.38,7456,9.56,72638.3,-8.41,-30.95,-31.45,0,*61
1514322511.61,7457,9.56,72638.0,-8.41,-31.01,-31.51,0,*69
1514322512.84,7458,9.56,72638.5,-8.41,-30.95,-31.45,0,*6F
1514322514.08,7459,9.56,72636.3,-8.41,-30.95,-31.45,0,*6E
1514322515.28,7460,9.56,72636.0,-8.41,-31.01,-31.45,0,*68
1514322516.52,7461,9.56,72636.8,-8.41,-30.95,-31.45,0,*65
1514322517.74,7462,9.56,72636.3,-8.41,-30.77,-31.33,0,*6B